Regional Weather Roundup
Issued by NWS Upton, NY

Current Version | Previous Version | Text Only | Print | Product List | Glossary On
Versions: 1 2 3 4 5 6 7 8 9 10 11 12 13 14 15 16 17 18 19 20 21 22 23 24 25 26 27 28 29 30 31 32 33 34 35 36 37 38 39 40 41 42 43 44 45 46 47 48 49 50
650
ASUS41 KOKX 231109
RWROKX

REGIONAL WEATHER ROUNDUP
NATIONAL WEATHER SERVICE NEW YORK NY
700 AM EDT FRI JUN 23 2017

NOTE: "FAIR" INDICATES FEW OR NO CLOUDS BELOW 12,000 FEET WITH NO
SIGNIFICANT WEATHER AND/OR OBSTRUCTIONS TO VISIBILITY.

NYZ071-072-176-178-NJZ106-104-231200-
NEW YORK CITY METRO AREA

CITY           SKY/WX    TMP DP  RH WIND       PRES   REMARKS
Central Park   CLOUDY    78  71  79 VRB5      29.85F
Bronx Bot Gard   N/A     79  68  69 SW8       29.83F
LaGuardia APRT CLOUDY    79  72  79 SW7       29.82S
Kennedy INTL   PTSUNNY   72  71  97 SW5       29.85S
Breezy Point     N/A     68 N/A N/A S3          N/A
Newark/Liberty CLOUDY    78  71  79 SW8       29.82F
Teterboro      MOSUNNY   78  71  79 S3        29.81F
$$

NYZ177-179-078>081-231200-
LONG ISLAND NEW YORK

CITY           SKY/WX    TMP DP  RH WIND       PRES   REMARKS
Jones Beach      N/A     70 N/A N/A SW3         N/A
Matinecock PT    N/A    N/A N/A N/A SW8         N/A
Farmingdale    NOT AVBL
MacArthur/ISP  PTSUNNY   74  72  93 SW8       29.84R
Shirley        MOSUNNY   75  73  93 SW7       29.85R
Mt Sinai Harb    N/A     73 N/A N/A S6          N/A
Westhampton    MOSUNNY   72  68  87 VRB7      29.86S
East Hampton   FAIR      70  68  93 SW5       29.83F
Montauk          N/A     73  69  87 VRB5      29.85S
$$

NYZ052-065-067-231200-
HUDSON VALLEY

CITY           SKY/WX    TMP DP  RH WIND       PRES   REMARKS
White Plains   NOT AVBL
Larchmont Harb   N/A     70 N/A N/A S7          N/A
Croton O-T Hud   N/A     75 N/A N/A SE1         N/A
Newburgh       PTSUNNY   73  70  88 W6        29.84S
Montgomery     PTSUNNY   74  69  85 SW5       29.82R
Poughkeepsie   CLOUDY    71  66  84 CALM      29.80S
Albany         CLOUDY    72  65  78 S10       29.77S
$$

NJZ001-105-106-008-010-013-015-019>022-104-231200-
NEW JERSEY

CITY           SKY/WX    TMP DP  RH WIND       PRES   REMARKS
Newark/Liberty CLOUDY    78  71  79 SW8       29.82F
Teterboro      MOSUNNY   78  71  79 S3        29.81F
Caldwell       MOSUNNY   77  70  79 VRB3      29.83S
Somerville     PTSUNNY   73  71  93 CALM      29.82S FOG
Linden         FAIR      77  70  81 W3        29.84R
Perth Amboy      N/A     75 N/A N/A SW6         N/A
Sussex         SUNNY     73  70  90 VRB3      29.84S
Andover          N/A     74  70  87 CALM      29.84F
Trenton        CLOUDY    75  73  93 S3        29.84S
Millville      CLOUDY    76  74  93 SW7       29.87R
Atlantic City  SUNNY     77  73  87 SW9       29.87S
Wrightstown    MOSUNNY   74  73  94 SW9       29.83R
Toms River     SUNNY     74  72  93 SW7       29.86S
Belmar         PTSUNNY   76  72  87 SW8       29.86S
$$

PAZ047>061-062-071-231200-
EASTERN PENNSYLVANIA

CITY           SKY/WX    TMP DP  RH WIND       PRES   REMARKS
Philadelphia   CLOUDY    77  72  84 SW12      29.85S
Allentown      PTSUNNY   74  69  85 CALM      29.84S
Scranton       CLOUDY    71  67  87 CALM      29.84S
$$

CTZ002-004>006-009-010-012-RIZ004-006-007-MAZ004-011-015-231200-
SOUTHERN NEW ENGLAND
 IN CT

CITY           SKY/WX    TMP DP  RH WIND       PRES   REMARKS
Bradley INTL   LGT RAIN  71  66  84 S6        29.81S
Hartford       LGT RAIN  72  70  93 CALM      29.81S
Danbury        MOSUNNY   73  69  87 CALM      29.85R
Wtrbury/Oxford MOSUNNY   70  64  83 SW5       29.85S
Bridgeport     MOSUNNY   74  69  85 SW6       29.83R
Meriden        CLOUDY    70  68  93 CALM      29.83R
New Haven      PTSUNNY   72  66  83 S3        29.84R
Chester        FAIR      73  72  94 SW3       29.84S
Groton         CLOUDY    68  67  96 S3        29.83R FOG
Wilimantic     CLOUDY    68  64  87 CALM      29.84S

 IN RI

CITY           SKY/WX    TMP DP  RH WIND       PRES   REMARKS
Providence     CLOUDY    70  69  97 S3        29.83F FOG
Block Island   CLOUDY    68  66  93 SW16      29.85S FOG
Westerly       CLOUDY    69  68  96 S3        29.84S FOG
 IN MA

CITY           SKY/WX    TMP DP  RH WIND       PRES   REMARKS
Boston         CLOUDY    71  65  81 S9        29.81S
Worcester      CLOUDY    69  62  78 W9        29.83F
Westfield      CLOUDY    66  64  94 CALM      29.81
Provincetown   FOG       67  66  97 S9        29.84S VSB 1/2
Nantucket      CLOUDY    62  62 100 S12       29.87S FOG
$$

ANZ330-335-338-340-345-350-353-355-231200-
COASTAL MARINE OBSERVATIONS


STATION/POSITION TIME  SKY/WX   TEMP    WIND        PRES    VSBY  WAVE
                                AIR SEA DIR/SP/G                  HT/PER
                 (UTC)          (F)     (DEG/KT/KT) (MB)    (MI)  (FT/S)
NY HARB ENTRANCE 0950            69 67  200/ 10/ 10 1010.3          2/ 9
20 S FIRE ISLAND 1050            71 69  220/ 10/ 12 1010.2          2/ 9
GREAT SOUTH BAY  1030            72 75  230/ 10/ 14   N/A
23 SSW MONTAUK P 0950            67 64              1011.0          3/ 6
15 E BARNEGAT LI 1030               65                N/A           2/ 9
HUDSON CANYON    0950            68 66  200/ 10/ 10 1011.5          2/ 9
KINGS POINT      1024            74 67  200/  9/ 10 1010.1
EXECUTION ROCKS  1045            72     180/  8/  8   N/A
CENTRAL LI SOUND NOT AVBL
EASTERN LI SOUND NOT AVBL
ROBBINS REEF     1036                   170/  2/  4 1010.8
$$


>>>>>>>>>>>>>>>>>>>>>>>>>>>> KEY <<<<<<<<<<<<<<<<<<<<<<<<<<<
>                                                          <
>     SKY/WX - Sky Condition/Present Weather               <
>     TMP    - Temperature in Fahrenheit                   <
>     DP     - Dew Point in Fahrenheit                     <
>     RH     - Relative Humidity in Percent                <
>     WIND   - Direction (from) and Speed in MPH           <
>     PRES   - Mean Sea Level Pressure (inches of Hg)      <
>     WCI    - Wind Chill Index                            <
>     VSB    - VISIBILITY IN MILES                         <
>     HX     - HEAT INDEX                                  <
>     TC     - TEMPERATURE IN CELSIUS                      <
>     VRB    - VARIABLE WIND DIRECTION                     <
>                                                          <
>>>>>>>>>>>>>>>>>>>>>>>>>>>> KEY <<<<<<<<<<<<<<<<<<<<<<<<<<<




USA.gov is the U.S. government's official web portal to all federal, state and local government web resources and services.